www.pogodaiklimat.ru

Погода и климат >> Архив погоды >> Россия >> Чукотка >> Илирней


АРХИВ ПОГОДЫ в Илирнее

Время (UTC), дата Ветер
(напр.,м/с)
 
Видим.   Явления Облачность Т
(С)
Тd
(С)
f
(%)
Тe
(С)
Тes
(С)
Комфортность P
(гПа)
Po
(гПа)
Тmin
(С)
Tmax
(С)
R
(мм)
R24
(мм)
S
(см)
18 14.05 штиль 0
{3}
50 км ясно -11.5 -14.3 80 -12 -10 1023.1 977.1
21 14.05 штиль 0
{3}
50 км ясно -9.0 -13.8 68 -9 -2 1023.2 977.6 -13.7 15
00 15.05 В 1
{4}
50 км ясно -4.0 -10.6 60 -6 +6 1022.4 977.7
03 15.05 В 3
{5}
50 км 5/5 600 м
[Sc]
-2.6 -11.5 50 -7 -4 1021.9 977.5
06 15.05 В 3
{5}
50 км 3/3 600 м
[Sc]
-2.5 -11.3 51 -7 -5 1021.9 977.5
09 15.05 ЮВ 2
{5}
50 км 4/0
[Ac cuf]
-4.8 -12.0 57 -9 -8 1023.1 978.1 -1.9
12 15.05 штиль 0
{5}
20 км 8/0
[Ac As]
-9.1 -12.5 76 -10 -10 1024.3 978.7
15 15.05 Ю 1
{3}
20 км 5/0
[Ac As]
+9.6 -12.6 19 +10 +10 1024.3 978.5
18 15.05 Ю 1
{4}
50 км 6/0
[Ac trans]
-9.2 -12.2 79 -11 -11 1024.0 978.4
21 15.05 В 2
{4}
50 км 3/0
[Ac trans]
-7.3 -12.2 68 -12 -7 1023.4 978.1 -9.6 15
00 16.05 В 3
{5}
50 км ясно -4.2 -10.6 61 -9 -1 1021.9 977.1
03 16.05 В 2
{5}
50 км 1/1 600 м
[Sc]
-1.4 -9.5 54 -5 +3 1020.5 976.3
06 16.05 В 3
{6}
50 км ясно -1.1 -9.4 53 -5 -2 1020.0 975.8
09 16.05 В 2
{5}
50 км 4/0
[Cs]
-3.0 -9.7 60 -7 -6 1020.2 975.7 -0.7
12 16.05 Ю 1
{7}
20 км ясно -6.2 -9.7 76 -8 -8 1020.4 975.4
15 16.05 СВ 2
{5}
20 км ясно -11.5 -13.6 84 -16 -16 1020.7 974.9
18 16.05 СВ 2
{5}
50 км ясно -10.3 -13.1 80 -15 -13 1019.2 973.6
21 16.05 В 2
{5}
50 км 10/0
[Ac und]
-7.0 -11.3 71 -11 -9 1017.0 972.0 -11.6 12
00 17.05 В 3
{7}
50 км 10/0
[Ac und]
-3.0 -11.6 51 -8 -5 1014.1 968.0
03 17.05 В 3
{7}
4000 м слаб. снег 10/0
[As op]
-1.1 -6.1 69 -6 -4 1021.8 968.0
06 17.05 В 2
{7}
4000 м слаб. снег 10/0
[As op]
-1.6 -3.0 90 -6 -5 1012.3 968.5
09 17.05 В 1
{6}
4000 м слаб. снег 10/0
[As op]
-3.8 -4.6 94 -6 -6 1012.2 968.0 -1.1 0.7
12 17.05 штиль 0
{6}
4000 м слаб. снег 10/0
[As op]
-1.6 -2.1 96 -3 -3 1012.0 968.1
15 17.05 штиль 0
{6}
4000 м слаб. снег 10/0
[As op]
-2.0 -2.1 99 -3 -3 1012.2 968.3
18 17.05 штиль 0
{7}
4000 м слаб. снег 10/0
[As op]
-1.6 -2.1 96 -3 -3 1012.0 968.1
21 17.05 штиль 0
{7}
50 км ясно -1.8 -4.0 85 -3 +5 1013.9 969.9 -2.0 0.0 10
00 18.05 З 2
{9}
50 км 10/0
[Ac und]
-1.4 -4.7 78 -5 -2 1014.5 970.6
03 18.05 З 3
{9}
50 км 10/0
[Ac und]
-1.2 -6.6 67 -6 -4 1013.2 971.2
06 18.05 З 5
{1}
50 км 10/0
[Ac und]
-1.5 -7.5 64 -8 -7 1015.8 971.8
09 18.05 З 3
{10}
50 км 10/0
[Ac und]
-3.0 -1.0 100 -8 -8 1016.7 972.4 -1.2
12 18.05 З 5
{10}
50 км 10/0
[Ac und]
-3.8 -7.5 75 -11 -11 1017.3 972.8
15 18.05 З 1
{8}
50 км 10/0
[Ac und]
-4.0 -7.8 75 -6 -6 1015.9 973.3
18 18.05 З 1
{6}
50 км 10/0
[Ac und]
-3.8 -6.2 83 -6 -6 1018.1 973.6
21 18.05 В 3
{2}
50 км 10/0
[Ac und]
-2.2 -6.1 75 -7 -6 1017.9 973.7 -3.8 10
00 19.05 СВ 1
{5}
50 км 10/0
[Ac und]
-0.0 -9.0 51 -1 +2 1017.1 973.3
03 19.05 штиль 0
{5}
50 км 10/6 600 м
[Sc Ac trans]
+0.8 -8.1 51 0 +2 1016.3 972.6
06 19.05 СВ 3
{7}
50 км 3/3 600 м
[Sc]
-0.6 -8.7 54 -5 -3 1015.7 971.9
09 19.05 СВ 5
{9}
50 км ясно -4.5 -10.1 65 -11 -11 1015.8 971.3 +0.8
12 19.05 В 5
{10}
50 км ясно -6.7 -11.3 70 -14 -14 1015.7 970.9
15 19.05 В 4
{10}
50 км ясно -7.5 -11.1 75 -14 -14 1015.2 970.3
18 19.05 В 5
{9}
50 км 10/0
[Ac und]
-6.6 -10.7 73 -14 -14 1014.6 969.8
21 19.05 В 6-10
{11}
50 км 10/0
[Ac und]
-4.5 -9.1 70 -12 -11 1013.7 969.2 -7.9 10
00 20.05 В 5-9
{11}
50 км 10/0
[Ac und]
-2.7 -8.8 63 -9 -7 1013.3 969.2
03 20.05 В 6-10
{12}
50 км 10/0
[Ac und]
+0.2 -6.9 59 -6 -5 1013.2 969.6
06 20.05 В 7-10
{12}
50 км 8/0
[Ac As]
+0.5 -6.5 59 -6 -6 1013.7 970.1
09 20.05 В 4-9
{11}
50 км 9/0
[Ac und]
+0.1 -4.0 74 -5 -5 1015.1 971.4 +0.5
12 20.05 В 4
{9}
20 км 10/0
[Ac und]
-0.5 -3.9 78 -6 -6 1016.3 972.5
15 20.05 В 3
{8}
20 км 10/0
[Ac und]
-0.8 -4.0 79 -6 -6 1017.4 973.5
18 20.05 В 2
{5}
50 км 8/0
[Ac trans]
-0.6 -4.4 75 -4 -3 1018.2 974.3
21 20.05 В 2
{5}
50 км 5/0
[Ac trans]
+0.5 -3.5 75 -3 +2 1018.9 975.0 -0.8 9
00 21.05 штиль 0
{3}
50 км 10/0
[Ac und]
-2.1 -3.6 89 -3 +1 1018.7 975.2
03 21.05 ЮЗ 1
{2}
50 км 10/0
[Ac und]
+5.8 -2.5 55 +5 +8 1018.7 975.6
06 21.05 З 3
{6}
50 км 10/0
[Ac und]
+5.1 -0.2 69 +2 +3 1019.2 976.1
09 21.05 З 4
{8}
50 км 10/0
[Ac und]
+3.0 -0.6 77 -2 -1 1020.4 977.1 +5.8
12 21.05 СЗ 2
{5}
20 км 10/0
[Ac und]
+1.4 +0.5 94 -2 -2 1022.4 978.0
15 21.05 З 2
{8}
20 км 10/0
[Ac und]
+1.4 -1.5 81 -2 -2 1022.4 978.6

 

Местоположение метеостанции Илирней (Чукотка, Россия): широта 67.25 долгота 167.90 высота над уровнем моря 354 м.

В архиве по умолчанию представлена погода в Илирнее за последнюю неделю. Архивные данные за месяц целиком и за предыдущие месяцы, начиная с января 2011 года, Вы можете получить, выбрав интересующий диапазон дат из раскрывающегося списка и нажав кнопку "Ввод!".


*Определитесь, кто Вы:
робот инопланетянин человек

Внимание! Время в таблицах - всемирное. Для получения местного времени необходимо прибавить поправку, которая равна 12 ч.

Смотрите также архив погоды в соседних городах и на ближайших метеорологических станциях:

Погода в Билибино (Чукотка, Россия) (109 км)
Погода в Баимке (Чукотка, Россия) (180 км)
Погода в Островном (Чукотка, Россия) (187 км)
Погода в Чауне (Чукотка, Россия) (215 км)
Погода в Эньмувееме (Чукотка, Россия) (255 км)
Погода в Раучуе (Чукотка, Россия) (257 км)
Погода в Майской (Чукотка, Россия) (276 км)
Погода в Певеке (Чукотка, Россия) (288 км)
Погода на 21 км (Чукотка, Россия) (290 км)
Погода в Комсомольской (Чукотка, Россия) (291 км)

Пояснения к столбцам:

Ветер - указаны скорость ветра в м/с - средняя за 10 мин, порывы в срок и между сроками (в фигурных скобках) и направление, откуда дует ветер: С - северный, СВ - северо-восточный, В - восточный, ЮВ - юго-восточный, Ю - южный, ЮЗ - юго-западный, З - западный, СЗ - северо-западный.
Видимость - горизонтальная дальность видимости в метрах или километрах. При видимости от 1 до 10 км при отсутствии осадков обычно наблюдается дымка, при ухудшении видимости до 1 км и менее - туман. В сухую погоду видимость может ухудшаться дымом, пылью или мглою.
Явления - указаны атмосферные явления, наблюдавшиеся в срок или в последний час перед сроком; фигурными скобками обозначены явления, наблюдавшиеся между сроками (за 1-3 часа до срока); квадратными скобками обозначены град или гололедные отложения с указанием их диаметра в мм.
Облачность - указаны через наклонную черту общая и нижняя облачность в баллах и высота нижней границы облаков в метрах; квадратными скобками обозначены формы облаков: Ci - перистые, Cs - перисто-слоистые, Cc - перисто-кучевые, Ac - высококучевые, As - высокослоистые, Sc - слоисто-кучевые, Ns - слоисто-дождевые, Cu - кучевые, Cb - кучево-дождевые. Подробнее классификацию облаков см. в Атласе облаков (PDF).
T - Температура воздуха - температура, измеренная на высоте 2 м над землей.
Td - Температура точки росы - температура, при понижении до которой содержащийся в воздухе водяной пар достигнет насыщения.
f - Относительная влажность воздуха - влажноcть воздуха, измеренная на высоте 2 м над землей.
Te - Эффективная температура - температура, которую ощущает одетый по сезону человек в тени. Характеристика душности погоды. При расчете учитывается влияние влажности воздуха и скорости ветра на теплоощущения человека.
Tes - Эффективная температура на солнце - температура, которую ощущает человек, с поправкой на солнечный нагрев. Характеристика знойности погоды. Зависит от высоты солнца над горизонтом, облачности и скорости ветра. Ночью, в пасмурную погоду, а также при ветре 12 м/с и более поправка равна нулю.
P - Атмосферное давление - приведенное к уровню моря атмосферное давление.
Po - Атмосферное давление - измеренное на уровне метеостанции атмосферное давление.
Tmin - Минимальная температура - минимум температуры воздуха на высоте 2 м над землей.
Tmax - Максимальная температура - максимум температуры воздуха на высоте 2 м над землей.
R - Количество осадков - Количество выпавших осадков за период времени, мм. При наведении курсора мыши на число - период времени, за который выпало указанное количество осадков.
R24 - Количество осадков - Количество выпавших осадков за 24 часа, мм.
S - Снежный покров - Высота снежного покрова, см. При наведении курсора мыши на число - состояние снежного покрова и степень покрытия местности в баллах.